{"data":{"norad_id":59915,"epoch":"2026-05-25T03:55:31.215936Z","epoch_age_seconds":71235,"freshness":"FRESH","line1":"1 59915U 24104A   26145.16355574  .00000151  00000+0  00000+0 0  9999","line2":"2 59915   0.0167  51.0537 0001483   2.6295 286.1747  1.00275738  7292","mean_motion":1.00275738,"eccentricity":0.0001483,"inclination_deg":0.0167,"raan_deg":51.0537,"arg_perigee_deg":2.6295,"mean_anomaly_deg":286.1747,"bstar":0,"rev_number":729,"period_min":1436.0402912218,"perigee_km":35779.233962784,"apogee_km":35791.739693611,"semimajor_km":42163.623828197,"source":"CELESTRAK","updated_at":"2026-05-25T13:38:14.145387Z"}}